KINEIS-3C

Last updated on Mon Sep 21 2026 00:02:54 GMT+0000 (Coordinated Universal Time)

1 61220U 24172A 26263.21847685 .00001096 00000+0 18120-3 0 9997 2 61220 98.0408 352.0972 0001575 155.7595 204.3687 14.72332583107056
UTC large
Height (km)
Speed (km/s)
/
Latitude / Longitude
Inclination (degrees)
Orbital Period (minutes)
Azimuth
Elevation
Range (km)
Doppler Factor

Next 0 passes for location: London (51.5072 / 0.1276)

No passes found over London.
KINEIS-3C